Dewpoint
57 58 57 58 59 58 58 58 58 58 58 59 59 59 59 59 59 53 24 35 43 67 66 41 47 47 49 53 59 60 54 50 43 34 35 39 42 49 51 53 54 54 57 58 59
58 58 59 59 59 58 58 58 58 58 58 59 59 59 59 59 50 35 50 66 69 70 40 37 40 42 45 44 48 49 44 43 34 35 34 27 36 48 51 53 54 53 56 57 63
57 58 58 57 58 59 58 58 59 58 59 58 59 59 59 57 44 29 65 70 69 67 31 31 31 36 32 36 38 36 41 33 32 26 24 23 24 53 51 52 52 53 55 59 61
56 56 56 56 57 57 58 58 59 59 60 59 58 59 58 54 37 44 71 69 69 41 31 31 39 33 30 32 35 28 30 30 25 23 25 26 24 38 54 53 53 55 55 56 61
56 55 56 56 56 57 57 58 58 59 59 59 59 58 54 40 29 57 68 67 45 31 28 35 42 36 30 27 28 28 28 28 26 23 21 22 22 27 49 53 54 54 55 55 57
55 55 55 55 56 57 57 57 58 59 59 58 58 58 50 42 50 56 46 47 32 34 36 37 41 30 27 25 26 28 28 28 25 25 25 21 24 28 53 53 53 53 54 54 54
55 55 55 55 55 56 56 57 57 59 59 58 58 55 50 40 43 46 34 32 32 34 41 42 35 29 25 23 26 24 26 27 25 24 20 20 19 23 53 52 52 52 53 54 54
55 55 55 55 55 55 56 56 57 59 59 58 58 54 43 48 41 38 33 31 32 32 38 37 32 30 28 26 23 22 27 24 24 21 20 21 19 23 53 51 51 52 52 53 54
55 55 55 55 55 55 54 55 57 60 59 59 54 50 42 48 37 35 36 36 34 35 34 31 30 28 28 26 25 28 26 23 23 19 18 22 24 31 24 50 51 51 52 52 53
54 54 54 54 54 54 53 56 59 59 58 55 51 44 44 33 35 37 36 37 35 33 32 35 28 25 26 25 23 19 16 17 20 18 23 23 22 30 36 37 50 52 52 53 53
54 53 53 53 53 53 52 51 40 41 46 32 41 43 42 40 34 35 37 32 31 32 30 33 27 24 25 26 26 19 17 19 20 19 18 23 26 35 36 41 52 53 54 54 54
53 53 53 53 52 52 51 43 32 31 31 38 39 40 40 32 28 30 30 27 32 27 30 30 28 29 30 23 21 20 19 17 23 23 16 21 25 33 43 47 54 56 55 57 60
53 52 52 52 51 52 49 47 44 40 34 31 31 34 31 26 21 28 27 26 28 27 25 28 29 28 24 20 19 21 21 22 23 21 19 19 24 33 42 52 55 58 59 60 61
52 52 51 51 44 47 47 43 41 34 29 28 29 28 22 19 19 23 27 26 28 25 25 22 23 19 22 22 24 25 24 23 22 20 17 21 16 30 40 46 54 57 59 60 61
51 51 51 50 42 43 45 47 44 33 27 32 24 24 22 19 20 24 26 26 24 24 21 19 22 19 22 25 23 23 26 24 26 20 19 21 20 28 39 45 49 54 58 59 61
51 50 50 46 45 44 44 42 37 27 23 22 17 18 19 19 18 23 23 27 26 22 21 21 23 19 17 24 24 26 24 24 27 22 20 22 23 30 37 43 46 49 55 58 58
50 49 49 43 19 33 37 40 31 28 29 16 15 16 17 16 16 19 18 19 18 17 19 22 22 21 20 20 24 24 24 22 22 25 22 27 28 30 36 44 46 49 52 55 56
48 49 48 46 43 38 42 36 32 31 28 20 16 16 15 15 15 17 18 18 20 20 19 19 20 21 23 21 21 23 21 21 23 22 23 28 31 36 42 44 47 49 51 53 55
49 42 40 43 44 41 40 33 32 34 30 27 17 15 14 14 15 18 18 17 18 19 18 23 23 24 23 23 22 23 23 24 21 26 20 26 34 36 39 39 41 45 51 53 55
44 43 39 32 43 43 37 36 34 31 27 26 26 16 14 14 14 16 18 19 18 21 24 25 21 25 26 24 25 21 23 18 22 20 20 26 33 34 38 37 44 46 47 48 49
42 36 38 31 43 37 32 33 30 27 25 26 28 29 27 28 21 17 18 20 21 25 24 24 22 22 27 26 24 23 23 27 25 24 23 25 31 40 38 39 41 42 44 46 51
41 24 33 33 32 34 30 30 32 23 22 21 28 27 28 29 28 27 24 30 27 25 25 33 26 27 24 28 28 26 22 27 26 23 26 27 26 34 39 38 39 43 46 51 51
36 37 37 33 28 28 28 26 25 23 20 22 23 28 28 26 25 31 30 30 32 32 29 28 29 25 23 25 21 24 29 30 31 30 25 26 27 34 40 45 48 49 49 50 50
39 36 37 33 32 27 24 23 20 24 23 24 30 28 26 24 28 30 30 30 30 32 53 39 29 26 21 24 24 26 26 25 30 28 27 28 28 32 35 42 45 47 48 49 51
40 35 43 40 37 39 38 23 20 18 23 27 26 28 27 35 28 26 30 32 31 48 31 28 24 27 26 25 28 29 28 26 24 27 22 21 25 24 32 44 45 48 48 47 49
30 41 39 41 42 35 38 31 25 21 24 23 24 25 28 32 33 32 33 31 30 33 28 30 26 32 28 31 32 31 30 29 27 27 24 23 24 42 46 47 47 47 47 48 51
40 40 40 41 39 35 31 32 31 26 27 30 25 31 35 37 37 34 35 31 34 32 34 34 36 33 32 33 30 29 30 29 29 28 24 21 28 44 43 43 45 48 49 49 49
Lifted_Index
14 14 14 14 13 14 14 14 14 14 14 14 14 13 13 13 11 10 9 9 9 9 8 7 5 3 2 1 -1 -2 -3 -3 -2 -0 0 -0 -1 -2 -3 -3 -2 -2 -1 -2 -2
15 15 14 14 13 14 14 15 15 15 14 14 14 14 13 12 10 9 9 9 9 9 8 6 5 3 3 2 1 0 -1 -1 -0 1 1 1 -0 -2 -3 -3 -2 -2 -1 -2 -3
16 16 15 14 14 13 14 15 15 15 14 14 14 14 13 11 9 8 8 9 9 9 8 6 4 4 3 3 3 2 1 1 1 2 2 2 1 -1 -3 -3 -3 -2 -2 -2 -3
18 17 16 15 14 13 13 14 15 14 14 14 14 13 12 10 7 6 7 8 9 9 8 6 4 4 4 4 4 3 3 2 2 3 3 3 2 0 -2 -2 -2 -2 -2 -2 -3
18 18 17 16 15 13 13 14 15 14 14 14 14 13 11 8 7 6 7 8 9 9 7 6 5 4 4 4 4 4 3 3 3 3 3 3 3 1 -1 -2 -2 -2 -2 -2 -2
19 18 18 17 15 14 13 14 15 14 14 14 14 12 10 7 7 8 9 9 9 8 7 6 5 5 5 4 4 4 3 3 3 3 3 3 3 2 -0 -1 -1 -1 -1 -2 -2
18 18 18 17 15 14 13 14 15 15 15 14 14 12 9 7 7 8 9 10 9 8 7 6 6 6 5 4 3 3 3 3 2 2 2 3 3 2 -0 -1 -1 -1 -1 -1 -2
18 18 18 17 16 14 14 14 15 14 14 14 13 10 8 7 8 8 9 9 9 8 7 7 6 6 5 4 3 2 2 2 2 1 1 2 2 2 0 -1 -2 -1 -1 -1 -2
18 18 17 17 16 14 13 14 14 14 13 13 11 9 7 7 8 8 8 8 8 8 8 7 6 5 4 3 2 1 1 1 1 1 1 1 2 2 1 -1 -2 -2 -2 -2 -2
18 17 17 16 15 13 12 12 12 12 12 11 9 8 7 8 8 7 7 7 7 7 7 6 6 5 4 3 1 1 1 0 0 0 0 1 2 2 1 -0 -2 -2 -2 -2 -3
17 17 16 16 15 13 11 11 11 10 10 9 8 8 7 8 8 7 7 7 7 7 6 6 5 5 4 3 2 1 1 0 0 0 0 1 1 1 1 -1 -2 -3 -3 -3 -3
17 17 16 15 14 11 10 10 10 10 9 9 9 8 8 8 8 7 7 7 6 6 5 5 5 4 4 3 2 2 1 1 1 1 0 1 1 1 0 -1 -2 -3 -4 -4 -4
17 17 16 14 12 10 9 10 10 10 9 8 8 8 8 8 8 8 8 7 6 5 5 5 5 4 4 3 3 2 2 1 1 1 0 0 1 0 -1 -2 -3 -4 -4 -5 -5
17 17 16 14 10 9 9 9 10 9 7 7 7 8 9 8 8 8 8 7 6 5 5 5 4 4 3 3 3 2 2 2 1 1 1 0 0 -0 -1 -3 -4 -5 -5 -5 -5
17 17 16 14 11 9 8 9 9 8 5 5 7 8 8 8 7 7 7 7 6 5 5 5 4 3 3 2 2 2 2 2 1 1 1 0 0 -0 -1 -2 -4 -5 -5 -5 -5
17 17 16 14 12 9 9 9 8 6 4 5 6 6 7 7 7 7 7 6 6 5 5 4 4 3 2 2 2 2 2 2 1 1 0 -0 0 0 -0 -1 -2 -3 -4 -4 -4
16 16 15 14 12 10 9 8 6 5 4 5 5 5 6 6 6 6 6 6 5 4 4 3 3 3 2 2 2 2 2 1 1 0 0 0 0 0 0 -1 -2 -2 -3 -3 -3
16 15 14 13 12 11 9 7 5 4 5 5 5 5 5 5 6 5 5 5 4 3 3 3 2 3 3 2 2 2 2 2 1 0 0 0 0 0 -0 -1 -2 -2 -2 -3 -3
14 13 12 12 12 11 9 6 4 4 5 5 5 5 4 4 4 5 5 4 3 3 3 2 2 3 3 2 2 2 3 2 2 1 1 0 0 -0 -1 -1 -2 -2 -3 -3 -3
13 11 10 10 10 9 8 6 4 4 5 5 5 4 3 3 4 4 4 3 3 3 3 2 2 2 2 2 2 2 3 3 3 2 1 0 -0 -1 -1 -1 -1 -2 -2 -2 -2
11 9 9 9 9 8 7 6 5 4 4 4 4 3 3 2 3 3 3 2 2 2 2 2 1 1 1 2 2 2 3 3 3 2 1 0 0 -0 -0 -1 -1 -1 -1 -1 -1
10 8 8 8 8 7 6 5 5 4 5 4 4 3 2 2 2 2 1 1 1 1 1 2 2 1 1 2 2 2 2 2 2 2 1 1 1 0 -0 -0 -0 -0 -0 -1 -1
9 8 7 7 7 6 6 5 5 5 5 5 4 4 3 2 1 1 1 1 1 1 1 2 2 2 2 2 2 2 2 2 2 2 2 1 1 0 -0 -0 -0 -0 -1 -1 -0
9 8 7 6 6 6 6 5 5 5 5 5 5 4 3 2 2 2 2 2 2 2 2 2 3 3 3 3 2 2 2 2 2 2 2 2 2 1 1 0 -0 -1 -0 0 0
10 8 7 6 5 5 5 5 5 4 5 5 5 4 4 3 3 2 2 3 3 3 3 3 3 4 4 4 3 3 3 3 3 3 3 3 2 2 1 1 0 0 0 0 1
10 9 7 6 5 5 5 5 4 4 4 5 5 5 4 4 3 3 3 3 3 3 3 4 4 4 4 4 4 3 3 3 3 3 3 3 2 2 1 1 1 1 1 0 0
9 9 8 6 5 4 4 4 4 4 4 5 5 5 5 4 4 3 3 3 3 3 4 4 4 4 3 3 3 3 3 3 3 3 3 3 2 1 1 1 1 1 1 0 0